﻿測定場所 (Monitoring sites),日付 (Measurement date),時間 (Measurement time),線量率 最大値 (max) μGy/h,線量率 最小値 (min) μGy/h,線量率 平均値 (average) μGy/h,
足立 (Adachi),2021-09-05,23:01～24:00,0.0299,0.0265,0.0281,
足立 (Adachi),2021-09-05,22:01～23:00,0.0301,0.0252,0.0280,
足立 (Adachi),2021-09-05,21:01～22:00,0.0301,0.0267,0.0283,
足立 (Adachi),2021-09-05,20:01～21:00,0.0304,0.0261,0.0281,
足立 (Adachi),2021-09-05,19:01～20:00,0.0297,0.0266,0.0281,
足立 (Adachi),2021-09-05,18:01～19:00,0.0299,0.0267,0.0283,
足立 (Adachi),2021-09-05,17:01～18:00,0.0313,0.0270,0.0287,
足立 (Adachi),2021-09-05,16:01～17:00,0.0307,0.0270,0.0289,
足立 (Adachi),2021-09-05,15:01～16:00,0.0305,0.0268,0.0282,
足立 (Adachi),2021-09-05,14:01～15:00,0.0306,0.0264,0.0286,
足立 (Adachi),2021-09-05,13:01～14:00,0.0305,0.0265,0.0283,
足立 (Adachi),2021-09-05,12:01～13:00,0.0301,0.0271,0.0285,
足立 (Adachi),2021-09-05,11:01～12:00,0.0312,0.0267,0.0287,
足立 (Adachi),2021-09-05,10:01～11:00,0.0326,0.0267,0.0295,
足立 (Adachi),2021-09-05,09:01～10:00,0.0326,0.0277,0.0306,
足立 (Adachi),2021-09-05,08:01～09:00,0.0327,0.0283,0.0307,
足立 (Adachi),2021-09-05,07:01～08:00,0.0334,0.0279,0.0305,
足立 (Adachi),2021-09-05,06:01～07:00,0.0310,0.0267,0.0291,
足立 (Adachi),2021-09-05,05:01～06:00,0.0325,0.0272,0.0303,
足立 (Adachi),2021-09-05,04:01～05:00,0.0339,0.0285,0.0307,
足立 (Adachi),2021-09-05,03:01～04:00,0.0374,0.0298,0.0335,
足立 (Adachi),2021-09-05,02:01～03:00,0.0418,0.0343,0.0376,
足立 (Adachi),2021-09-05,01:01～02:00,0.0440,0.0357,0.0389,
足立 (Adachi),2021-09-05,00:01～01:00,0.0398,0.0311,0.0341,
足立 (Adachi),2021-09-04,23:01～24:00,0.0413,0.0325,0.0362,
足立 (Adachi),2021-09-04,22:01～23:00,0.0498,0.0389,0.0451,
足立 (Adachi),2021-09-04,21:01～22:00,0.0538,0.0447,0.0493,
足立 (Adachi),2021-09-04,20:01～21:00,0.0482,0.0365,0.0431,
足立 (Adachi),2021-09-04,19:01～20:00,0.0407,0.0291,0.0330,
足立 (Adachi),2021-09-04,18:01～19:00,0.0327,0.0268,0.0297,
足立 (Adachi),2021-09-04,17:01～18:00,0.0309,0.0266,0.0288,
足立 (Adachi),2021-09-04,16:01～17:00,0.0317,0.0273,0.0294,
足立 (Adachi),2021-09-04,15:01～16:00,0.0303,0.0265,0.0286,
足立 (Adachi),2021-09-04,14:01～15:00,0.0300,0.0264,0.0284,
足立 (Adachi),2021-09-04,13:01～14:00,0.0331,0.0269,0.0290,
足立 (Adachi),2021-09-04,12:01～13:00,0.0308,0.0270,0.0285,
足立 (Adachi),2021-09-04,11:01～12:00,0.0326,0.0270,0.0296,
足立 (Adachi),2021-09-04,10:01～11:00,0.0359,0.0295,0.0322,
足立 (Adachi),2021-09-04,09:01～10:00,0.0391,0.0324,0.0353,
足立 (Adachi),2021-09-04,08:01～09:00,0.0353,0.0268,0.0304,
足立 (Adachi),2021-09-04,07:01～08:00,0.0370,0.0295,0.0323,
足立 (Adachi),2021-09-04,06:01～07:00,0.0350,0.0276,0.0311,
足立 (Adachi),2021-09-04,05:01～06:00,0.0307,0.0273,0.0291,
足立 (Adachi),2021-09-04,04:01～05:00,0.0309,0.0260,0.0283,
足立 (Adachi),2021-09-04,03:01～04:00,0.0299,0.0263,0.0284,
足立 (Adachi),2021-09-04,02:01～03:00,0.0304,0.0263,0.0284,
足立 (Adachi),2021-09-04,01:01～02:00,0.0304,0.0265,0.0287,
足立 (Adachi),2021-09-04,00:01～01:00,0.0316,0.0268,0.0289,
足立 (Adachi),2021-09-03,23:01～24:00,0.0329,0.0288,0.0310,
足立 (Adachi),2021-09-03,22:01～23:00,0.0343,0.0296,0.0320,
足立 (Adachi),2021-09-03,21:01～22:00,0.0358,0.0309,0.0336,
足立 (Adachi),2021-09-03,20:01～21:00,0.0369,0.0283,0.0329,
足立 (Adachi),2021-09-03,19:01～20:00,0.0332,0.0285,0.0304,
足立 (Adachi),2021-09-03,18:01～19:00,0.0394,0.0316,0.0347,
足立 (Adachi),2021-09-03,17:01～18:00,0.0405,0.0300,0.0354,
足立 (Adachi),2021-09-03,16:01～17:00,0.0373,0.0285,0.0316,
足立 (Adachi),2021-09-03,15:01～16:00,0.0369,0.0300,0.0323,
足立 (Adachi),2021-09-03,14:01～15:00,0.0343,0.0266,0.0301,
足立 (Adachi),2021-09-03,13:01～14:00,0.0318,0.0277,0.0293,
足立 (Adachi),2021-09-03,12:01～13:00,0.0361,0.0292,0.0319,
足立 (Adachi),2021-09-03,11:01～12:00,0.0437,0.0342,0.0379,
足立 (Adachi),2021-09-03,10:01～11:00,0.0476,0.0372,0.0425,
足立 (Adachi),2021-09-03,09:01～10:00,0.0503,0.0371,0.0444,
足立 (Adachi),2021-09-03,08:01～09:00,0.0453,0.0367,0.0405,
足立 (Adachi),2021-09-03,07:01～08:00,0.0455,0.0360,0.0410,
足立 (Adachi),2021-09-03,06:01～07:00,0.0453,0.0351,0.0402,
足立 (Adachi),2021-09-03,05:01～06:00,0.0418,0.0344,0.0373,
足立 (Adachi),2021-09-03,04:01～05:00,0.0447,0.0330,0.0374,
足立 (Adachi),2021-09-03,03:01～04:00,0.0419,0.0339,0.0375,
足立 (Adachi),2021-09-03,02:01～03:00,0.0455,0.0386,0.0412,
足立 (Adachi),2021-09-03,01:01～02:00,0.0459,0.0332,0.0412,
足立 (Adachi),2021-09-03,00:01～01:00,0.0415,0.0307,0.0351,
足立 (Adachi),2021-09-02,23:01～24:00,0.0490,0.0369,0.0424,
足立 (Adachi),2021-09-02,22:01～23:00,0.0560,0.0441,0.0508,
足立 (Adachi),2021-09-02,21:01～22:00,0.0543,0.0463,0.0504,
足立 (Adachi),2021-09-02,20:01～21:00,0.0507,0.0378,0.0455,
足立 (Adachi),2021-09-02,19:01～20:00,0.0469,0.0383,0.0422,
足立 (Adachi),2021-09-02,18:01～19:00,0.0471,0.0376,0.0430,
足立 (Adachi),2021-09-02,17:01～18:00,0.0438,0.0361,0.0401,
足立 (Adachi),2021-09-02,16:01～17:00,0.0417,0.0349,0.0378,
足立 (Adachi),2021-09-02,15:01～16:00,0.0437,0.0352,0.0377,
足立 (Adachi),2021-09-02,14:01～15:00,0.0456,0.0365,0.0408,
足立 (Adachi),2021-09-02,13:01～14:00,0.0434,0.0330,0.0378,
足立 (Adachi),2021-09-02,12:01～13:00,0.0397,0.0334,0.0361,
足立 (Adachi),2021-09-02,11:01～12:00,0.0450,0.0359,0.0400,
足立 (Adachi),2021-09-02,10:01～11:00,0.0472,0.0387,0.0440,
足立 (Adachi),2021-09-02,09:01～10:00,0.0505,0.0431,0.0465,
足立 (Adachi),2021-09-02,08:01～09:00,0.0503,0.0357,0.0406,
足立 (Adachi),2021-09-02,07:01～08:00,0.0426,0.0364,0.0394,
足立 (Adachi),2021-09-02,06:01～07:00,0.0439,0.0326,0.0385,
足立 (Adachi),2021-09-02,05:01～06:00,0.0413,0.0334,0.0360,
足立 (Adachi),2021-09-02,04:01～05:00,0.0435,0.0366,0.0395,
足立 (Adachi),2021-09-02,03:01～04:00,0.0445,0.0360,0.0396,
足立 (Adachi),2021-09-02,02:01～03:00,0.0429,0.0352,0.0386,
足立 (Adachi),2021-09-02,01:01～02:00,0.0481,0.0393,0.0430,
足立 (Adachi),2021-09-02,00:01～01:00,0.0423,0.0324,0.0368,
足立 (Adachi),2021-09-01,23:01～24:00,0.0419,0.0335,0.0375,
足立 (Adachi),2021-09-01,22:01～23:00,0.0416,0.0320,0.0355,
足立 (Adachi),2021-09-01,21:01～22:00,0.0348,0.0281,0.0312,
足立 (Adachi),2021-09-01,20:01～21:00,0.0309,0.0262,0.0290,
足立 (Adachi),2021-09-01,19:01～20:00,0.0317,0.0274,0.0297,
足立 (Adachi),2021-09-01,18:01～19:00,0.0334,0.0286,0.0309,
足立 (Adachi),2021-09-01,17:01～18:00,0.0419,0.0318,0.0362,
足立 (Adachi),2021-09-01,16:01～17:00,0.0434,0.0356,0.0395,
足立 (Adachi),2021-09-01,15:01～16:00,0.0421,0.0343,0.0372,
足立 (Adachi),2021-09-01,14:01～15:00,0.0390,0.0339,0.0364,
足立 (Adachi),2021-09-01,13:01～14:00,0.0417,0.0309,0.0363,
足立 (Adachi),2021-09-01,12:01～13:00,0.0329,0.0279,0.0301,
足立 (Adachi),2021-09-01,11:01～12:00,0.0315,0.0267,0.0289,
足立 (Adachi),2021-09-01,10:01～11:00,0.0322,0.0265,0.0294,
足立 (Adachi),2021-09-01,09:01～10:00,0.0315,0.0276,0.0296,
足立 (Adachi),2021-09-01,08:01～09:00,0.0309,0.0272,0.0289,
足立 (Adachi),2021-09-01,07:01～08:00,0.0311,0.0269,0.0289,
足立 (Adachi),2021-09-01,06:01～07:00,0.0316,0.0260,0.0289,
足立 (Adachi),2021-09-01,05:01～06:00,0.0312,0.0273,0.0287,
足立 (Adachi),2021-09-01,04:01～05:00,0.0314,0.0270,0.0290,
足立 (Adachi),2021-09-01,03:01～04:00,0.0308,0.0265,0.0287,
足立 (Adachi),2021-09-01,02:01～03:00,0.0318,0.0272,0.0296,
足立 (Adachi),2021-09-01,01:01～02:00,0.0342,0.0291,0.0310,
足立 (Adachi),2021-09-01,00:01～01:00,0.0390,0.0306,0.0348,
足立 (Adachi),2021-08-31,23:01～24:00,0.0416,0.0323,0.0364,
足立 (Adachi),2021-08-31,22:01～23:00,0.0426,0.0311,0.0371,
足立 (Adachi),2021-08-31,21:01～22:00,0.0675,0.0397,0.0530,
足立 (Adachi),2021-08-31,20:01～21:00,0.0743,0.0531,0.0644,
足立 (Adachi),2021-08-31,19:01～20:00,0.0574,0.0360,0.0469,
足立 (Adachi),2021-08-31,18:01～19:00,0.0420,0.0348,0.0370,
足立 (Adachi),2021-08-31,17:01～18:00,0.0362,0.0306,0.0329,
足立 (Adachi),2021-08-31,16:01～17:00,0.0383,0.0335,0.0359,
足立 (Adachi),2021-08-31,15:01～16:00,0.0458,0.0367,0.0405,
足立 (Adachi),2021-08-31,14:01～15:00,0.0523,0.0298,0.0410,
足立 (Adachi),2021-08-31,13:01～14:00,0.0543,0.0281,0.0307,
足立 (Adachi),2021-08-31,12:01～13:00,0.0319,0.0289,0.0303,
足立 (Adachi),2021-08-31,11:01～12:00,0.0327,0.0285,0.0304,
足立 (Adachi),2021-08-31,10:01～11:00,0.0327,0.0286,0.0305,
足立 (Adachi),2021-08-31,09:01～10:00,0.0321,0.0282,0.0304,
足立 (Adachi),2021-08-31,08:01～09:00,0.0320,0.0272,0.0301,
足立 (Adachi),2021-08-31,07:01～08:00,0.0328,0.0287,0.0305,
足立 (Adachi),2021-08-31,06:01～07:00,0.0326,0.0283,0.0304,
足立 (Adachi),2021-08-31,05:01～06:00,0.0321,0.0283,0.0303,
足立 (Adachi),2021-08-31,04:01～05:00,0.0323,0.0285,0.0303,
足立 (Adachi),2021-08-31,03:01～04:00,0.0330,0.0283,0.0305,
足立 (Adachi),2021-08-31,02:01～03:00,0.0329,0.0294,0.0310,
足立 (Adachi),2021-08-31,01:01～02:00,0.0326,0.0294,0.0309,
足立 (Adachi),2021-08-31,00:01～01:00,0.0333,0.0283,0.0309,
足立 (Adachi),2021-08-30,23:01～24:00,0.0326,0.0290,0.0309,
足立 (Adachi),2021-08-30,22:01～23:00,0.0331,0.0292,0.0310,
足立 (Adachi),2021-08-30,21:01～22:00,0.0334,0.0293,0.0309,
足立 (Adachi),2021-08-30,20:01～21:00,0.0329,0.0287,0.0307,
足立 (Adachi),2021-08-30,19:01～20:00,0.0332,0.0289,0.0306,
足立 (Adachi),2021-08-30,18:01～19:00,0.0332,0.0282,0.0305,
足立 (Adachi),2021-08-30,17:01～18:00,0.0328,0.0285,0.0303,
足立 (Adachi),2021-08-30,16:01～17:00,0.0324,0.0274,0.0302,
足立 (Adachi),2021-08-30,15:01～16:00,0.0321,0.0281,0.0303,
足立 (Adachi),2021-08-30,14:01～15:00,0.0333,0.0286,0.0305,
足立 (Adachi),2021-08-30,13:01～14:00,0.0324,0.0288,0.0304,
足立 (Adachi),2021-08-30,12:01～13:00,0.0320,0.0285,0.0300,
足立 (Adachi),2021-08-30,11:01～12:00,0.0333,0.0274,0.0302,
足立 (Adachi),2021-08-30,10:01～11:00,0.0327,0.0281,0.0299,
足立 (Adachi),2021-08-30,09:01～10:00,0.0318,0.0280,0.0299,
足立 (Adachi),2021-08-30,08:01～09:00,0.0318,0.0285,0.0303,
足立 (Adachi),2021-08-30,07:01～08:00,0.0321,0.0287,0.0303,
足立 (Adachi),2021-08-30,06:01～07:00,0.0324,0.0276,0.0301,
足立 (Adachi),2021-08-30,05:01～06:00,0.0336,0.0285,0.0304,
足立 (Adachi),2021-08-30,04:01～05:00,0.0318,0.0285,0.0303,
足立 (Adachi),2021-08-30,03:01～04:00,0.0324,0.0286,0.0306,
足立 (Adachi),2021-08-30,02:01～03:00,0.0320,0.0287,0.0305,
足立 (Adachi),2021-08-30,01:01～02:00,0.0319,0.0286,0.0304,
足立 (Adachi),2021-08-30,00:01～01:00,0.0326,0.0285,0.0305,
